Home > Weather > Carson City > Past weeks

Flag for USA Weather for the Past 2 Weeks in Carson City, Nevada, USA

Now
53 °F

Passing clouds.


Feels Like: 51 °F
Forecast: 34 / 63 °F
Wind: 6 mph from Northwest

Location: Reno Tahoe International Airport

Current Time: Apr 28, 2016 at 11:06:23 PM

Latest Report: Apr 28, 2016 at 9:55 PM


Visibility: 10 mi

Pressure: 29.92 "Hg (25.22 "Hg at 1425m altitude)

Humidity: 45%

Dew Point: 32 °F

Location of Carson CityLocation

Historic Weather in Carson City — Graph

°F

Carson City Temperature Yesterday

Maximum temperature yesterday: 58 °F (at 3:55 PM)
Minimum temperature yesterday: 42 °F (at 3:55 AM)
Average temperature yesterday: 49 °F

High & Low Weather Summary for the Past Weeks

 TemperatureHumidityPressure
High79 °F (Apr 19, 4:55 PM)96% (Apr 22, 2:55 PM)30.28 "Hg (Apr 22, 2:55 PM)
Low34 °F (Apr 26, 5:55 AM)10% (Apr 17, 1:55 PM)29.57 "Hg (Apr 22, 9:55 AM)
Average53 °F41%29.95 "Hg
* Reported Apr 13 8:55 PM — Apr 28 8:55 PM, Carson City, Weather by CustomWeather, © 2016

Note: Actual official high and low records may vary slightly from our data, if they occured in-between our weather recording intervals... More about our weather records

Advertising

Carson City Weather History for the Previous 24 Hours

Scroll right to see more
 ConditionsComfort  
Time TempWeatherWind HumidityBarometerVisibility
8:55 PM
Thu, Apr 28
56 °FPassing clouds.8 mph37%29.90 "Hg10 mi
7:55 PM57 °FScattered clouds.10 mph36%29.88 "Hg10 mi
6:55 PM59 °FPartly sunny.15 mph33%29.87 "Hg10 mi
5:55 PM60 °FPartly sunny.8 mph28%29.86 "Hg10 mi
4:55 PM61 °FPartly sunny.13 mph31%29.85 "Hg10 mi
3:55 PM60 °FPartly sunny.15 mph32%29.85 "Hg10 mi
2:55 PM59 °FBroken clouds.7 mph32%29.86 "Hg10 mi
1:55 PM58 °FPartly sunny.12 mph35%29.87 "Hg10 mi
12:55 PM55 °FPartly sunny.8 mph40%29.88 "Hg10 mi
11:55 AM54 °FPartly sunny.9 mph43%29.88 "Hg10 mi
10:55 AM50 °FPartly sunny.14 mph50%29.88 "Hg10 mi
9:55 AM49 °FBroken clouds.15 mph52%29.88 "Hg10 mi
8:55 AM48 °FBroken clouds.12 mph56%29.88 "Hg10 mi
7:55 AM46 °FPartly sunny.16 mph61%29.87 "Hg10 mi
6:55 AM45 °FPassing clouds.13 mph63%29.85 "Hg10 mi
5:55 AM45 °FPassing clouds.6 mph68%29.82 "Hg10 mi
4:55 AM45 °FPassing clouds.12 mph68%29.81 "Hg10 mi
3:55 AM44 °FPartly cloudy.3 mph71%29.80 "Hg10 mi
2:55 AM44 °FPassing clouds.6 mph71%29.81 "Hg10 mi
1:55 AM44 °FPassing clouds.9 mph71%29.80 "Hg10 mi
12:55 AM45 °FPassing clouds.9 mph74%29.80 "Hg10 mi
11:55 PM
Wed, Apr 27
45 °FPassing clouds.5 mph74%29.80 "Hg10 mi
Weather by CustomWeather, © 2016

See weather overviewHow to use our weather pages